COSMOS 1375 DEB, 17801

Orbit data source: Space-Track

COSMOS 1375 DEB, 17801 is space debris in LEO originally from a launch on Sun, 06 Jun 1982 UTC launched from the Plesetsk Missile And Space Complex (PKMTR). Debris objects in space refer to the collection of defunct objects orbiting the Earth. Examples of debris include non-operational satellites, rocket bodies, and fragments generated from explosions, collisions, or faulty payload assembly.

Loading next visibility...
Identifier
17801, 1982-055AT
Orbit
LEO
Country
Flag of CISCIS
Related business
Manufacturer
Unknown
Mission
Spacecraft
Bus & Motor
Unknown
Mass
Unknown
Launch date (UTC)
1982-06-06 (44 years ago)
Launch vehicle
Unknown
Launch site
Plesetsk Missile And Space Complex (PKMTR)
Object type
Payload
Rocket body
Debris
Shape & HBR
Unknown shape, 0.1 m
Radar Cross Section
Medium (>0.1 m² and <1 m²)

Expand to show TLE details & history
Last TLE update: 3 days ago

TLE from 3 days ago
0 COSMOS 1375 DEB
1 17801U 82055AT  26170.70168061  .00002784  00000-0  94034-3 0  9996
2 17801  65.8224 275.9973 0032036 233.5961 126.2179 14.38199261 85938
Epoch: 2026-06-19T16:50Z
TLE epoch observation values (Epoch: 2026-06-19T16:50:25.204Z)
Latitude
0.00002°
Longitude
115.46542°
Altitude
780.069 km
Speed
7.457 km/s
True Right ascension
18h 23m 59s
True Declination
0° 00' 00"
Sunlit
Object was in full shadow at epoch
Visualization orbit readout
Latitude
Unknown
Longitude
Unknown
Altitude
Unknown
Speed
Unknown
Apparent Right ascension
Unknown
Apparent Declination
Unknown
Sunlit
N/A
Visualization observer readout
Local Sidereal Time
03:40:37
Azimuth
Unknown
Elevation
Unknown
Doppler factor
Unknown
Orbital elements
Apogee altitude
785.804 km
Perigee altitude
740.05 km
Semi-major axis
7,141.064 km
Eccentricity
0.0032
Inclination
65.8224°
RAAN
275.9973°
Arg. of periapsis
233.5961°
True anomaly
126.51337°
Mean anomaly
126.2179°
Eccentric anomaly
126.36571°
Mean motion
3.59665 °/min
Orbital period
100.09 mins
BSTAR
0.00094034
Loading maneuver chart data...
Computing Atmospheric mass density...
Loading historical data...
Loading historical data...
Loading historical data...
Loading historical data...
Loading historical data...
Loading historical data...
Loading historical data...

Documentation

Showing up to 5 results
|